[[{"header":{"parameterUnit":"m.s-1","parameterCategory":1,"la1":30.2991,"la2":30.254,"lo1":-89.0895,"lo2":-89.0444,"dy":0.0017,"dx":0.0017,"nx":28,"ny":28,"refTime":"2024-03-22T21:00:00:Z","depth":0,"parameterNumber":2,"parameterNumberName":"U-component_of_WINDS"},"data":[0,0,0,0,0,0,0,0,0,0,0,0,0,0,0,0,0,0,0,0,0,0,0,0,0,0,0,0,0,0,0,0,0,0,0,0,0,0,0,0,0,0,0,0,0,0,0,0,0,0,0,0,0,0,0,0,0,0,-4.1838,-4.1838,0,-4.1893,-4.1894,-4.1894,-4.1855,-4.1853,-4.1852,-4.185,-4.1906,-4.1909,-4.1912,0,0,0,0,0,0,0,0,0,0,0,0,0,-4.1699,-4.1702,-4.1838,-4.1838,-4.1839,-4.1893,-4.1894,-4.1894,-4.1855,-4.1853,-4.1851,-4.1849,-4.1905,-4.1909,-4.1912,0,0,0,0,0,0,0,0,0,0,0,0,0,-4.1758,-4.1703,-4.1837,-4.1826,-4.1826,-4.1893,-4.1894,-4.1895,-4.1856,-4.1853,-4.1851,-4.1848,-4.1904,-4.1908,-4.1913,-4.1994,0,0,-4.1927,-4.1929,0,0,0,0,0,0,0,0,-4.1754,-4.1763,-4.1827,-4.1827,-4.1826,-4.1864,-4.1865,-4.1928,-4.1856,-4.1844,-4.185,-4.1847,-4.1894,-4.19,-4.1916,-4.1997,-4.1999,-4.1928,-4.193,-4.1932,-4.1934,0,0,0,0,0,0,0,-4.175,-4.176,-4.1859,-4.1828,-4.1828,-4.1819,-4.1824,-4.1877,-4.1883,-4.1845,-4.1842,-4.185,-4.1894,-4.1911,-4.1917,-4.2,-4.1927,-4.1932,-4.1935,-4.1936,-4.2152,-4.2155,0,0,0,0,0,0,-4.1747,-4.1757,-4.1858,-4.1861,-4.1783,-4.1823,-4.1829,-4.1855,-4.1883,-4.1884,-4.1852,-4.1848,-4.1904,-4.1911,-4.1918,-4.2015,-4.1932,-4.1937,-4.1939,-4.2149,-4.2153,-4.2156,0,0,0,0,0,0,-4.1744,-4.1757,-4.1855,-4.1808,-4.182,-4.1828,-4.1858,-4.1857,-4.1875,-4.1888,-4.1888,-4.1868,-4.1903,-4.1912,-4.1976,-4.2017,-4.1939,-4.1943,-4.2146,-4.215,-4.2155,-4.221,0,0,0,0,0,0,-4.1741,-4.1756,-4.1786,-4.1809,-4.1823,-4.1912,-4.186,-4.186,-4.1883,-4.1878,-4.1903,-4.1905,-4.1901,-4.1969,-4.1981,-4.2022,-4.1947,-4.2142,-4.2148,-4.2153,-4.2205,-4.2216,-4.2226,0,0,0,0,0,-4.1736,-4.1799,-4.1788,-4.18,-4.1861,-4.1914,-4.1922,-4.1916,-4.1887,-4.1917,-4.1926,-4.1904,-4.2011,-4.1976,-4.1989,-4.2032,-4.214,-4.2146,-4.2153,-4.22,-4.2214,-4.2225,0,0,0,0,0,0,-4.178,-4.1802,-4.1789,-4.1862,-4.1887,-4.1907,-4.1946,-4.1931,-4.1964,-4.1958,-4.195,-4.1956,-4.2023,-4.2034,-4.1995,-4.2113,-4.2071,-4.208,-4.2102,-4.2116,-4.2126,-4.2121,-4.1951,0,0,0,0,0,-4.1798,-4.1839,-4.1857,-4.1919,-4.1932,-4.1937,-4.196,-4.1954,-4.1979,-4.1989,-4.2002,-4.2027,-4.2066,-4.2092,-4.2129,-4.2207,-4.2212,-4.2244,-4.2254,-4.2263,-4.227,-4.2313,-4.2327,-4.2178,-4.2178,-4.2178,0,0,-4.1836,-4.1853,-4.1879,-4.1929,-4.1946,-4.1989,-4.1946,-4.1993,-4.2025,-4.1996,-4.2057,-4.2068,-4.2096,-4.2167,-4.22,-4.2179,-4.2313,-4.2271,-4.2278,-4.228,-4.2321,-4.2335,-4.2348,-4.2182,-4.2181,-4.2181,0,0,-4.1926,-4.1944,-4.1998,-4.2018,-4.2046,-4.205,-4.2063,-4.2087,-4.2093,-4.2155,-4.2134,-4.2173,-4.2241,-4.2261,-4.228,-4.2383,-4.2364,-4.2395,-4.2449,-4.2491,-4.2502,-4.2513,-4.2548,-4.2561,-4.2403,-4.2403,-4.2403,0,-4.1969,-4.2033,-4.2028,-4.2077,-4.2099,-4.2077,-4.2132,-4.2151,-4.219,-4.2207,-4.2183,-4.2269,-4.2286,-4.2363,-4.2388,-4.2405,-4.242,-4.239,-4.2501,-4.2512,-4.2521,-4.2555,-4.2569,-4.2407,-4.2406,-4.2406,-4.2406,0,-4.2084,-4.2129,-4.217,-4.2208,-4.2236,-4.2288,-4.2291,-4.232,-4.2313,-4.2319,-4.2383,-4.2403,-4.2444,-4.2463,-4.2456,-4.2539,-4.2525,-4.2502,-4.2459,-4.2539,-4.2571,-4.2584,-4.2412,-4.2411,-4.2409,-4.2409,0,0,-4.22,-4.2238,-4.2253,-4.227,-4.2302,-4.2336,-4.2389,-4.2429,-4.2454,-4.2483,-4.2526,-4.2586,-4.2565,-4.2587,-4.2583,-4.262,-4.2699,-4.2592,-4.2593,-4.261,-4.2792,-4.2808,-4.2823,-4.2689,-4.2691,-4.2693,-4.279,0,-4.2291,-4.2381,-4.2379,-4.2462,-4.2504,-4.2485,-4.2531,-4.2555,-4.2564,-4.2601,-4.261,-4.2652,-4.2622,-4.2635,-4.2672,-4.2682,-4.2736,-4.2675,-4.2728,-4.273,-4.2719,-4.284,-4.2856,-4.2946,-4.2802,-4.2804,-4.2806,0,-4.2408,-4.2442,-4.2529,-4.2556,-4.2573,-4.2614,-4.2652,-4.2688,-4.2716,-4.272,-4.2746,-4.2737,-4.2791,-4.2749,-4.2822,-4.2782,-4.2804,-4.2813,-4.2816,-4.2819,-4.2771,-4.2844,-4.2975,-4.2988,-4.2826,-4.2824,-4.2823,0,-4.2483,-4.255,-4.2611,-4.2627,-4.266,-4.269,-4.2705,-4.2731,-4.2756,-4.279,-4.2806,-4.2846,-4.2867,-4.2899,-4.2901,-4.287,-4.2975,-4.2933,-4.2979,-4.2979,-4.3,-4.2998,-4.3134,-4.3018,-4.3018,-4.3017,-4.3017,0,-4.2583,-4.2637,-4.2645,-4.2682,-4.2743,-4.2742,-4.2802,-4.2815,-4.2839,-4.2879,-4.2866,-4.2904,-4.2906,-4.2945,-4.2947,-4.3008,-4.3018,-4.3022,-4.3022,-4.3022,-4.3022,-4.3035,-4.3028,-4.3021,-4.302,-4.3019,-4.3019,0,-4.2675,-4.2683,-4.2748,-4.2775,-4.2783,-4.2827,-4.285,-4.2886,-4.2895,-4.2946,-4.2958,-4.2971,-4.3017,-4.3023,-4.3076,-4.3078,-4.3151,-4.3145,-4.3141,-4.3139,-4.3184,-4.3179,-4.3331,-4.3351,-4.3224,-4.3225,-4.3226,0,-4.2737,-4.2779,-4.2811,-4.2837,-4.2854,-4.2896,-4.2922,-4.2924,-4.2951,-4.2988,-4.302,-4.3065,-4.31,-4.3175,-4.3189,-4.3231,-4.3225,-4.3275,-4.323,-4.323,-4.3224,-4.3221,-4.3225,-4.3283,-4.3284,-4.3285,-4.3286,0,-4.2847,-4.285,-4.2887,-4.2928,-4.2959,-4.2991,-4.3021,-4.3043,-4.3049,-4.3081,-4.3128,-4.3156,-4.3211,-4.3256,-4.3297,-4.3313,-4.3301,-4.3301,-4.3314,-4.3313,-4.3309,-4.3311,-4.3162,-4.3297,-4.3296,-4.3295,-4.3294,-4.3294,-4.2925,-4.2962,-4.299,-4.3033,-4.3056,-4.3085,-4.312,-4.3134,-4.3173,-4.3218,-4.3218,-4.327,-4.3299,-4.3353,-4.3373,-4.3414,-4.3397,-4.3416,-4.342,-4.3424,-4.3428,-4.3304,-4.3422,-4.3421,-4.3421,-4.3421,-4.3421,0,-4.3034,-4.3052,-4.3092,-4.3134,-4.3169,-4.3156,-4.3189,-4.3218,-4.3264,-4.3292,-4.3328,-4.3383,-4.3427,-4.3446,-4.349,-4.3519,-4.3514,-4.353,-4.3527,-4.3531,-4.3441,-4.3425,-4.3533,-4.3533,-4.3533,-4.3533,-4.3533,-4.3533,-4.3094,-4.3154,-4.3161,-4.3233,-4.3251,-4.3301,-4.3321,-4.3348,-4.3371,-4.3433,-4.3469,-4.3482,-4.3507,-4.3553,-4.3593,-4.3598,-4.3614,-4.3632,-4.3634,-4.3549,-4.3537,-4.3526,-4.3511,-4.3636,-4.3636,-4.372,-4.3721,-4.3722]},{"header":{"parameterUnit":"m.s-1","parameterCategory":1,"la1":30.2991,"la2":30.254,"lo1":-89.0895,"lo2":-89.0444,"dy":0.0017,"dx":0.0017,"nx":28,"ny":28,"refTime":"2024-03-22T21:00:00:Z","depth":0,"parameterNumber":3,"parameterNumberName":"V-component_of_WINDS"},"data":[0,0,0,0,0,0,0,0,0,0,0,0,0,0,0,0,0,0,0,0,0,0,0,0,0,0,0,0,0,0,0,0,0,0,0,0,0,0,0,0,0,0,0,0,0,0,0,0,0,0,0,0,0,0,0,0,0,0,4.0598,4.0599,0,4.066,4.0661,4.0662,4.0714,4.0714,4.0715,4.0715,4.0774,4.0775,4.0776,0,0,0,0,0,0,0,0,0,0,0,0,0,4.0521,4.0522,4.0598,4.0599,4.06,4.066,4.0661,4.0662,4.0713,4.0714,4.0715,4.0716,4.0774,4.0775,4.0776,0,0,0,0,0,0,0,0,0,0,0,0,0,4.0566,4.0522,4.0598,4.0633,4.0637,4.066,4.0661,4.0662,4.0713,4.0714,4.0715,4.0716,4.0774,4.0775,4.0777,4.0769,0,0,4.0781,4.0782,0,0,0,0,0,0,0,0,4.0563,4.0568,4.0627,4.063,4.0635,4.068,4.0655,4.0698,4.0713,4.0684,4.0715,4.0716,4.0742,4.0746,4.0756,4.0772,4.0774,4.0782,4.0782,4.0783,4.0784,0,0,0,0,0,0,0,4.056,4.0566,4.0622,4.0628,4.0632,4.0644,4.0652,4.0664,4.0707,4.0687,4.0691,4.0697,4.0744,4.0754,4.0758,4.0775,4.0782,4.0783,4.0784,4.0784,4.0789,4.0788,0,0,0,0,0,0,4.0552,4.0563,4.0621,4.0624,4.06,4.0645,4.0653,4.0665,4.0707,4.0715,4.0697,4.07,4.0751,4.0756,4.076,4.0755,4.0783,4.0785,4.0786,4.079,4.0789,4.0788,0,0,0,0,0,0,4.055,4.0557,4.0618,4.0595,4.0604,4.0645,4.0658,4.0665,4.0675,4.0715,4.0723,4.0699,4.0752,4.0758,4.0767,4.0757,4.0785,4.0787,4.0791,4.079,4.0788,4.0743,0,0,0,0,0,0,4.0548,4.0556,4.0554,4.0595,4.0605,4.0625,4.0657,4.0666,4.0679,4.0683,4.0719,4.0726,4.0753,4.0764,4.0768,4.076,4.0788,4.0792,4.079,4.0789,4.0746,4.0741,4.0736,0,0,0,0,0,4.0545,4.0537,4.0553,4.056,4.0604,4.0624,4.063,4.0663,4.0677,4.0676,4.0701,4.0725,4.0758,4.0765,4.077,4.0762,4.0793,4.0791,4.0789,4.0748,4.0742,4.0736,0,0,0,0,0,0,4.0492,4.0543,4.0562,4.0567,4.0591,4.0633,4.0632,4.0655,4.0674,4.0677,4.0715,4.0723,4.0728,4.0746,4.0753,4.0757,4.0778,4.0777,4.0745,4.074,4.0735,4.0731,4.0789,0,0,0,0,0,4.0482,4.0496,4.0539,4.054,4.0551,4.0589,4.0599,4.0623,4.0648,4.0658,4.0684,4.0707,4.0723,4.0732,4.0749,4.0749,4.0757,4.0746,4.0741,4.0737,4.0735,4.0737,4.0733,4.0782,4.0782,4.0782,0,0,4.0459,4.0489,4.0495,4.053,4.0551,4.0564,4.0597,4.0609,4.0618,4.0659,4.0671,4.0691,4.0719,4.0723,4.0727,4.0738,4.0724,4.0734,4.0731,4.0732,4.0735,4.073,4.0726,4.0781,4.0781,4.0781,0,0,4.0426,4.0449,4.0454,4.0475,4.0507,4.0533,4.0534,4.0572,4.0588,4.06,4.0632,4.0643,4.0669,4.0688,4.0701,4.0676,4.0698,4.068,4.0655,4.0656,4.0652,4.0649,4.064,4.0637,4.0678,4.0678,4.0678,0,4.0393,4.0415,4.0452,4.0463,4.0477,4.0517,4.0521,4.0539,4.0575,4.0583,4.0596,4.0631,4.0652,4.0663,4.0657,4.0666,4.0668,4.0676,4.065,4.0647,4.0645,4.0637,4.0634,4.0676,4.0676,4.0676,4.0677,0,4.0374,4.0389,4.0388,4.0424,4.0438,4.0445,4.0482,4.0492,4.0514,4.0538,4.055,4.0578,4.0601,4.0605,4.0626,4.0618,4.0625,4.0643,4.0665,4.0637,4.063,4.0628,4.0672,4.0673,4.0674,4.0675,0,0,4.0308,4.0366,4.0365,4.0382,4.0421,4.0433,4.0441,4.0466,4.0474,4.0497,4.0505,4.0527,4.0545,4.056,4.0583,4.0585,4.0564,4.0603,4.0605,4.0595,4.0557,4.0543,4.0539,4.0579,4.0579,4.0578,4.0555,0,4.0281,4.0301,4.0335,4.0344,4.0358,4.0396,4.0404,4.0428,4.0451,4.0465,4.049,4.0505,4.0528,4.0537,4.054,4.0566,4.0557,4.0568,4.0586,4.0586,4.0578,4.0536,4.0521,4.0498,4.0553,4.0552,4.0552,0,4.0252,4.0276,4.0286,4.0326,4.0333,4.0339,4.0365,4.0378,4.0407,4.0423,4.044,4.0467,4.0477,4.0498,4.0513,4.0519,4.0529,4.0543,4.0543,4.0546,4.0567,4.0538,4.0491,4.0488,4.0548,4.0549,4.0549,0,4.0204,4.0237,4.0249,4.0262,4.0308,4.0312,4.0331,4.0361,4.0373,4.0395,4.0404,4.0426,4.0438,4.0455,4.0486,4.0498,4.0497,4.052,4.0511,4.051,4.0509,4.0509,4.0463,4.0515,4.0515,4.0515,4.0515,0,4.017,4.0175,4.0228,4.0234,4.0241,4.028,4.0284,4.0307,4.0333,4.0344,4.0378,4.0387,4.0428,4.0442,4.0467,4.0475,4.048,4.0494,4.05,4.0491,4.0489,4.0497,4.05,4.0514,4.0514,4.0514,4.0514,0,4.0117,4.0153,4.0167,4.0211,4.0222,4.0225,4.0261,4.0269,4.0294,4.0308,4.0313,4.0352,4.037,4.0404,4.043,4.0447,4.0451,4.0462,4.0441,4.0445,4.0434,4.0435,4.0393,4.039,4.0443,4.0442,4.0442,0,4.0094,4.0099,4.0143,4.0154,4.0173,4.0189,4.0203,4.0241,4.0254,4.0288,4.0291,4.0312,4.0331,4.0358,4.0388,4.0409,4.0421,4.0405,4.0424,4.0415,4.0421,4.0421,4.0421,4.04,4.04,4.0399,4.0399,0,4.0048,4.0066,4.0086,4.0112,4.0128,4.015,4.0173,4.0179,4.0223,4.0235,4.0256,4.027,4.0299,4.032,4.0345,4.0364,4.0388,4.0392,4.0391,4.0382,4.037,4.0377,4.043,4.0393,4.0394,4.0394,4.0394,4.0395,4.0009,4.0016,4.0049,4.007,4.0092,4.0114,4.0123,4.0151,4.0168,4.0196,4.0217,4.0235,4.0264,4.0301,4.0318,4.0333,4.0344,4.0342,4.0342,4.0341,4.0338,4.0368,4.0337,4.0337,4.0338,4.0338,4.0338,0,3.9966,3.999,4.0009,4.0042,4.0058,4.0081,4.0109,4.012,4.0137,4.0162,4.0181,4.0204,4.0224,4.0257,4.0279,4.0284,4.0296,4.0289,4.0289,4.0293,4.0326,4.0325,4.0279,4.0279,4.0279,4.0279,4.0279,4.0279,3.9946,3.9958,3.998,4.0004,4.0027,4.0047,4.0061,4.008,4.0101,4.0126,4.0144,4.0165,4.0193,4.0218,4.0238,4.0247,4.0253,4.0243,4.0255,4.0285,4.0291,4.0296,4.0295,4.0244,4.0244,4.0221,4.0221,4.0221]}]]